"Pseudo-MPEC" for A106N64

Created 2018 May 18 2:18:09 UT using Find_Orb

Click here for an explanation of pseudo-MPECs

 
 Astrometry: 
     A106N64  C2018 05 10i0Astrometry;979N,e!@cRo7l\DTNg(we^p^-EW[hhP[Yi0?Te_T08
     A106N64  C2018 05 10q=.cdjasN!p:_@Rl?redacted;/M.wXC0G-OVMhMjwj.AR'n(dtAT08
     A106N64  C2018 05 10+L3J\:23r0Dt=M*j15mwhTX]4:!/[`[Hseeeqcw+5a)cY0m#%ls[T08
     A106N64  C2018 05 10j5y#=2xaHGsdWXS?a=xLd!RiHL$8Bm:Aq1u)06+1%Ot](9yNEOCPT08

Station data:
(T08) ATLAS-MLO, Mauna Loa  (N19.535772 W155.576400)  US/Hawaii.

Orbital elements:  A106N64
   Perihelion 2018 Jun 26.592400 +/- 11.6 TT = 14:13:03 (JD 2458296.092400)
Epoch 2018 May 10.0 TT = JDT 2458248.5   Earth MOID: 0.0002   Ve: 0.0029
M 343.12078 +/- 32                  Ma: 0.0010                AutoNEOCP
n   0.35466196 +/- 0.49             Peri.  254.81163 +/- 9
a   1.97663420 +/- 1.82             Node    49.91110 +/- 0.32
e   0.6350076 +/- 0.478             Incl.    2.72551 +/- 2.1
P   2.78                   H 26.0   G  0.15   U 12.3  
q 0.72145641 +/- 0.195    Q 3.23181199 +/- 2.78
From 4 observations 2018 May 10 (48.4 min); mean residual 0".72
Residuals in arcseconds: 
180510 T08  .38+  .15-    180510 T08  1.3+  .53-    
180510 T08  1.3-  .50+    180510 T08  .42-  .18+    

Ephemerides (geocentric):
Date (UTC) HH   RA              Dec         delta   r     elong  mag " sig PA
---- -- -- --  ------------   ------------  ------ ------ -----  --- ---- ---
2018 05 18 02  02 56 05.392   +11 22 40.29  .06788 .94542  13.0 33?? 8351  80
2018 05 18 03  02 56 00.646   +11 22 24.81  .06830 .94503  13.0 33?? 8341  80
2018 05 18 04  02 55 55.961   +11 22 09.56  .06872 .94465  13.1 33?? 8332  80
2018 05 18 05  02 55 51.338   +11 21 54.54  .06914 .94426  13.1 33?? 8323  80
2018 05 18 06  02 55 46.773   +11 21 39.75  .06957 .94388  13.2 33?? 8314  80
2018 05 18 07  02 55 42.268   +11 21 25.17  .06999 .94350  13.2 33?? 8305  80
2018 05 18 08  02 55 37.821   +11 21 10.81  .07041 .94311  13.3 33?? 8296  80
2018 05 18 09  02 55 33.430   +11 20 56.67  .07083 .94273  13.3 33?? 8287  80
2018 05 18 10  02 55 29.095   +11 20 42.74  .07125 .94234  13.4 33?? 8279  80
2018 05 18 11  02 55 24.814   +11 20 29.01  .07167 .94196  13.4 33?? 8270  80
2018 05 18 12  02 55 20.588   +11 20 15.50  .07210 .94158  13.5 33?? 8262  80
2018 05 18 13  02 55 16.415   +11 20 02.18  .07252 .94119  13.6 33?? 8253  80
2018 05 18 14  02 55 12.294   +11 19 49.06  .07294 .94081  13.6 33?? 8245  80
2018 05 18 15  02 55 08.224   +11 19 36.13  .07336 .94043  13.7 33?? 8237  80
2018 05 18 16  02 55 04.205   +11 19 23.40  .07378 .94005  13.7 33?? 8229  80
2018 05 18 17  02 55 00.235   +11 19 10.86  .07421 .93966  13.8 33?? 8221  80
2018 05 18 18  02 54 56.314   +11 18 58.51  .07463 .93928  13.8 33?? 8213  80
2018 05 18 19  02 54 52.442   +11 18 46.34  .07505 .93890  13.9 33?? 8205  80
2018 05 18 20  02 54 48.617   +11 18 34.35  .07547 .93852  13.9 33?? 8197  80
2018 05 18 21  02 54 44.838   +11 18 22.54  .07590 .93813  14.0 33?? 8190  80
2018 05 18 22  02 54 41.105   +11 18 10.91  .07632 .93775  14.0 33?? 8182  80
2018 05 18 23  02 54 37.418   +11 17 59.45  .07674 .93737  14.1 33?? 8175  80
2018 05 19 00  02 54 33.775   +11 17 48.16  .07716 .93699  14.1 33?? 8168  80
2018 05 19 01  02 54 30.176   +11 17 37.05  .07759 .93661  14.2 33?? 8160  80
2018 05 19 02  02 54 26.620   +11 17 26.10  .07801 .93622  14.2 33?? 8153  80
2018 05 19 03  02 54 23.107   +11 17 15.31  .07843 .93584  14.3 33?? 8146  80
2018 05 19 04  02 54 19.635   +11 17 04.69  .07886 .93546  14.3 33?? 8139  80
2018 05 19 05  02 54 16.205   +11 16 54.23  .07928 .93508  14.4 33?? 8132  80
2018 05 19 06  02 54 12.815   +11 16 43.93  .07970 .93470  14.4 33?? 8125  80
2018 05 19 07  02 54 09.466   +11 16 33.78  .08013 .93432  14.5 33?? 8118  80
2018 05 19 08  02 54 06.156   +11 16 23.79  .08055 .93394  14.5 33?? 8111  80
2018 05 19 09  02 54 02.885   +11 16 13.95  .08097 .93356  14.6 33?? 8105  80
2018 05 19 10  02 53 59.652   +11 16 04.26  .08140 .93318  14.6 33?? 8098  80
2018 05 19 11  02 53 56.457   +11 15 54.72  .08182 .93280  14.7 33?? 8092  80
2018 05 19 12  02 53 53.300   +11 15 45.33  .08224 .93242  14.7 33?? 8085  80
2018 05 19 13  02 53 50.179   +11 15 36.08  .08267 .93204  14.8 33?? 8079  80
2018 05 19 14  02 53 47.094   +11 15 26.98  .08309 .93166  14.8 33?? 8072  80
2018 05 19 15  02 53 44.045   +11 15 18.01  .08352 .93128  14.9 33?? 8066  80
2018 05 19 16  02 53 41.032   +11 15 09.19  .08394 .93090  14.9 33?? 8060  80
2018 05 19 17  02 53 38.053   +11 15 00.50  .08437 .93052  15.0 32?? 8054  80
2018 05 19 18  02 53 35.109   +11 14 51.95  .08479 .93015  15.0 32?? 8048  80
2018 05 19 19  02 53 32.198   +11 14 43.54  .08521 .92977  15.1 32?? 8042  80
2018 05 19 20  02 53 29.321   +11 14 35.25  .08564 .92939  15.1 32?? 8036  80
2018 05 19 21  02 53 26.476   +11 14 27.10  .08606 .92901  15.2 32?? 8030  80
2018 05 19 22  02 53 23.665   +11 14 19.08  .08649 .92863  15.2 32?? 8024  80
2018 05 19 23  02 53 20.885   +11 14 11.19  .08691 .92825  15.3 32?? 8018  80
2018 05 20 00  02 53 18.137   +11 14 03.43  .08734 .92788  15.3 32?? 8013  80
2018 05 20 01  02 53 15.420   +11 13 55.79  .08776 .92750  15.4 32?? 8007  80